This demonstration page uses our WeatherBlox Daily Observations layout. Learn more.

41.55636, -103.73856

Hourly Observations for October 31, 2019

Temp ( °F °C ) Dew Point ( °F °C ) Humidity (%) Winds ( mph kmh ) Pressure ( in mb ) Visibility ( mi km ) Precip ( " mm )
12:58 am 00:58 Partly Cloudy 16 -8.9 5 -15 62 62 WNW 12 19 30.49 1033 10 16.0934 0 0
1:58 am 01:58 Clear 7 -13.8 2 -16.9 78 78 W 12 19 30.51 1033 10 16.0934 0 0
2:58 am 02:58 Clear 10 -12.5 2 -16.5 72 72 W 9 15 30.5 1033 10 16.0934 0 0
3:58 am 03:58 Clear 11 -11.5 3 -16.2 68 68 W 13 20 30.48 1032 10 16.0934 0 0
4:58 am 04:58 Clear 11 -11.6 3 -16.3 68 68 WSW 10 17 30.48 1032 10 16.0934 0 0
5:58 am 05:58 Clear 9 -12.7 2 -16.5 73 73 WSW 10 17 30.47 1032 10 16.0934 0 0
6:58 am 06:58 Clear 10 -12 3 -16.1 72 72 WSW 12 19 30.42 1030 10 16.0934 0 0
7:58 am 07:58 Clear 11 -11.9 3 -16 72 72 SW 8 13 30.4 1030 10 16.0934 0 0
8:58 am 08:58 Clear 12 -10.9 5 -15.2 71 71 SW 7 11 30.38 1029 10 16.0934 0 0
9:58 am 09:58 Clear 13 -10.3 6 -14.6 71 71 SW 8 13 30.36 1028 10 16.0934 0 0
10:58 am 10:58 Clear 11 -11.7 4 -15.6 73 73 W 9 15 30.36 1028 10 16.0934 0 0
11:58 am 11:58 Clear 16 -9 6 -14.4 65 65 W 14 22 30.36 1028 10 16.0934 0 0
12:58 pm 12:58 Clear 17 -8.1 7 -14 63 63 W 14 22 30.34 1027 10 16.0934 0 0
1:58 pm 13:58 Sunny 18 -7.8 7 -13.7 63 63 W 13 20 30.37 1029 10 16.0934 0 0
2:58 pm 14:58 Sunny 25 -3.7 10 -12.4 51 51 WNW 13 20 30.34 1027 10 16.0934 0 0
3:58 pm 15:58 Sunny 30 -1.1 14 -9.9 52 52 WNW 15 24 30.31 1026 10 16.0934 0 0
4:58 pm 16:58 Sunny 34 0.9 15 -9.6 46 46 NW 14 22 30.3 1026 10 16.0934 0 0
5:58 pm 17:58 Sunny 38 3.1 15 -9.7 39 39 WNW 15 24 30.3 1026 10 16.0934 0 0
6:58 pm 18:58 Sunny 39 4.1 16 -9 38 38 NW 17 28 30.27 1025 10 16.0934 0 0
7:58 pm 19:58 Sunny 41 4.8 14 -10.2 33 33 NW 21 33 30.23 1024 10 16.0934 0 0
8:58 pm 20:58 Sunny 42 5.5 15 -9.5 33 33 WNW 15 24 30.21 1023 10 16.0934 0 0
9:58 pm 21:58 Sunny 42 5.4 14 -9.8 33 33 WNW 18 30 30.22 1023 10 16.0934 0 0
10:58 pm 22:58 Sunny 41 5.2 14 -10.2 32 32 WNW 16 26 30.21 1023 10 16.0934 0 0
11:58 pm 23:58 Partly Cloudy 38 3.5 14 -9.8 37 37 WNW 14 22 30.19 1022 10 16.0934 0 0

Powered by AerisWeather